Location: Baia Mare
(47.6567°N, 23.5850°E)
Time: 03:28:05
(UTC+03:00)

ISS - Pass Details

Date: 08 September 2018
Orbit: 403 x 408 km, 51.6° (Epoch: 26 September)

Event Time Altitude Azimuth Distance (km) Brightness Sun altitude
Exits shadow 04:02:51 24° 66° (ENE) 893 -1.5 -26.1°
Drops below altitude 10° 04:04:17 10° 66° (ENE) 1,465 -0.1 -26.0°
Sets 04:06:22 0° 67° (ENE) 2,326 1.1 -25.7°
